Location: Devargunta
(16.7631°N, 80.9077°E)
Time: 15:19:13
(UTC+00:00)

YAOGAN 6 - Pass Details

Date: 19 January 2021
Orbit: 465 x 502 km, 97.0° (Epoch: 26 February)

Event Time Altitude Azimuth Distance (km) Brightness Sun altitude
Rises 23:48:47 0° 21° (NNE) 2,591 6.3 -19.1°
Reaches altitude 10° 23:50:57 10° 29° (NNE) 1,706 5.5 -18.6°
Maximum altitude 23:54:25 39° 99° (E) 759 4.1 -17.8°
Drops below altitude 10° 23:57:51 10° 170° (S) 1,696 5.7 -17.0°
Sets 00:00:01 0° 177° (S) 2,573 6.5 -16.5°
